Regional Weather Roundup
Issued by NWS

Home | Current Version | Previous Version | Graphics & Text | Print | Product List | Glossary On
Versions: 1 2 3 4 5 6 7 8 9 10 11 12 13 14 15 16 17 18 19 20 21 22 23 24 25 26 27 28 29 30 31 32 33 34 35 36 37 38 39 40 41 42 43 44 45 46 47 48 49 50
000
ASUS45 KABQ 212110
RWRNM
WEATHER ROUNDUP FOR NEW MEXICO
NATIONAL WEATHER SERVICE ALBUQUERQUE NM
300 PM MDT THU AUG 21 2014

NOTE: "FAIR" MEANS FEW OR NO CLOUDS BELOW 12,000 FEET AGL WITH NO
       SIGNIFICANT WEATHER OR OBSTRUCTIONS TO VISION.

      THIS PRODUCT IS RELEASED AS TWO VERSIONS.  ONE VERSION NEAR
      THE TOP OF THE HOUR CONTAINING PRELIMINARY DATA FROM ALBUQUERQUE
      AND OTHER STATIONS.  A FINAL VERSION WITH ADDITIONAL DATA IS
      ISSUED ABOUT 10 MINUTES AFTER THE HOUR.

NMZ501-503-504-510>518-212200-
NORTHWEST PLATEAU/NORTHCENTRAL MOUNTAINS

CITY           SKY/WX    TMP DP  RH WIND       PRES   REMARKS
FARMINGTON     SUNNY     84  36  18 W8        30.14F
LOS ALAMOS     CLOUDY    77  38  24 CALM      30.26S
SANTA FE       MOSUNNY   84  36  18 SW8       30.17F
TAOS           PTSUNNY   82  34  17 SW10      30.23F
ANGEL FIRE     MOCLDY    74  29  19 CALM      30.33S

$$
NMZ402-403-502-505>509-212200-
WESTCENTRAL MOUNTAINS/SOUTHWEST MOUNTAINS

CITY           SKY/WX    TMP DP  RH WIND       PRES   REMARKS
GALLUP         PTSUNNY   76  40  27 NE12      30.23R
SILVER CITY    FAIR      81  48  32 S10       30.16F

$$
NMZ407-409-411-412-212200-
SOUTHERN DESERTS

CITY           SKY/WX    TMP DP  RH WIND       PRES   REMARKS
LORDSBURG      FAIR      86  48  26 W7        30.08S
DEMING         FAIR      89  43  20 SW12G24   30.06F
LAS CRUCES     FAIR      90  44  20 W6G16     30.08F
HOLLOMAN AFB   MOSUNNY   93  45  18 S7        30.02F
ALAMOGORDO     MOSUNNY   91  43  18 S10G17    30.05F
T OR C         FAIR      88  44  21 VRB6G18   30.07F

$$
NMZ519>523-212200-
CENTRAL VALLEYS/CENTRAL HIGHLANDS

CITY           SKY/WX    TMP DP  RH WIND       PRES   REMARKS
ALBUQUERQUE    PTSUNNY   86  40  19 W9        30.12F
DOUBLE EAGLE   PTSUNNY   84  41  21 SE6       30.16F
MORIARTY ARPT  FAIR      85  40  20 W5        30.19S
CLINES CORNERS MOSUNNY   80  40  23 S10       30.23F
BELEN          FAIR      85  41  21 SW6       30.12S
SOCORRO        FAIR      89  38  16 SE9G21    30.08F

$$
NMZ524>526-539-540-212200-
SOUTHCENTRAL MOUNTAINS

CITY           SKY/WX    TMP DP  RH WIND       PRES   REMARKS
RUIDOSO        PTSUNNY   75  46  35 SE3       30.25F

$$
NMZ527>531-212200-
NORTHEAST HIGHLANDS/NORTHEAST PLAINS

CITY           SKY/WX    TMP DP  RH WIND       PRES   REMARKS
LAS VEGAS      MOSUNNY   83  39  21 SW10G16   30.19F
RATON          MOSUNNY   86  38  18 S12       30.13F
CLAYTON        MOSUNNY   92  49  22 VRB7      30.05F

$$
NMZ532>537-212200-
EASTCENTRAL PLAINS

CITY           SKY/WX    TMP DP  RH WIND       PRES   REMARKS
TUCUMCARI      MOSUNNY   97  43  15 W9        29.97F
CANNON AFB     SUNNY     94  50  22 S6G20     30.02F
CLOVIS AIRPORT   N/A     93  50  22 NW3       30.03F

$$
NMZ028-029-538-212200-
SOUTHEAST PLAINS

CITY           SKY/WX    TMP DP  RH WIND       PRES   REMARKS
ROSWELL        SUNNY     96  52  22 NE10      29.98F
ARTESIA        MOSUNNY   97  46  17 SW16G25   29.97F
CARLSBAD       MOSUNNY   98  48  18 S9        29.95F
HOBBS          MOSUNNY   95  50  21 S17       30.01F


$$



USA.gov is the U.S. government's official web portal to all federal, state and local government web resources and services.